Location: Unspecified
(0.0000°N, 0.0000°E)
Time: 10:15:06
(UTC+00:00)

Altair - All Passes

Search period start: 23 January 2021 00:00
Search period end: 02 February 2021 00:00
Orbit: 1501 x 1682 km, 47.2° (Epoch: 22 January)

Date Brightness Start Highest point End Pass type
(mag) Time Alt. Az. Time Alt. Az. Time Alt. Az.
23 Jan - 01:07:09 10° SSW 01:15:39 37° SE 01:24:25 10° ENE night (unlit)
23 Jan - 03:11:06 10° WSW 03:20:13 48° NW 03:29:42 10° NNE visible
23 Jan - 11:56:09 10° NNE 12:00:59 14° NE 12:05:44 10° ENE daylight
23 Jan - 13:56:23 10° NW 14:06:11 78° NE 14:15:36 10° SE daylight
23 Jan - 16:04:09 10° W 16:10:49 21° SW 16:17:24 10° S daylight
24 Jan - 00:42:16 10° S 00:50:28 33° SE 00:58:51 10° ENE night (unlit)
24 Jan - 02:45:46 10° SW 02:55:02 54° NW 03:04:39 10° NNE visible
24 Jan - 11:32:00 10° NNE 11:35:40 12° NE 11:39:17 10° ENE daylight
24 Jan - 13:31:14 10° NNW 13:41:01 70° NE 13:50:24 10° SE daylight
24 Jan - 15:38:21 10° W 15:45:36 24° SW 15:52:44 10° S daylight
25 Jan - 00:17:28 10° S 00:25:16 29° SE 00:33:15 10° ENE visible
25 Jan - 02:20:29 10° SW 02:29:50 60° NW 02:39:34 10° NNE visible
25 Jan - 11:08:40 10° NNE 11:10:19 10° NE 11:11:59 10° NE daylight
25 Jan - 13:06:07 10° NNW 13:15:50 63° NE 13:25:10 10° SE daylight
25 Jan - 15:12:38 10° WNW 15:20:24 27° SW 15:28:00 10° S daylight
25 Jan - 23:52:42 10° S 00:00:03 25° SE 00:07:33 10° E visible
26 Jan - 01:55:14 10° SW 02:04:39 67° NW 02:14:27 10° NNE night (unlit)
26 Jan - 04:06:54 10° WNW 04:10:04 12° NW 04:13:15 10° NNW visible
26 Jan - 12:41:01 10° NNW 12:50:38 56° NE 12:59:53 10° SE daylight
26 Jan - 14:46:59 10° WNW 14:55:12 31° SW 15:03:12 10° S daylight
26 Jan - 23:28:00 10° S 23:34:50 22° SE 23:41:48 10° E visible
27 Jan - 01:30:01 10° SW 01:39:28 75° NW 01:49:19 10° NE night (unlit)
27 Jan - 03:40:17 10° WNW 03:44:44 14° NW 03:49:15 10° NNW visible
27 Jan - 12:15:58 10° NNW 12:25:27 50° NE 12:34:34 10° ESE daylight
27 Jan - 14:21:25 10° WNW 14:30:00 35° SW 14:38:22 10° SSE daylight
27 Jan - 23:03:23 10° S 23:09:37 19° SE 23:15:55 10° E visible
28 Jan - 01:04:50 10° SW 01:14:18 83° NW 01:24:08 10° NE night (unlit)
28 Jan - 03:14:03 10° W 03:19:25 16° NW 03:24:53 10° N visible
28 Jan - 11:50:56 10° NNW 12:00:15 45° NE 12:09:13 10° ESE daylight
28 Jan - 13:55:54 10° WNW 14:04:49 40° SW 14:13:28 10° SSE daylight
28 Jan - 22:38:54 10° S 22:44:22 17° SE 22:49:54 10° E visible
29 Jan - 00:39:41 10° SW 00:49:08 89° SE 00:58:57 10° NE night (unlit)
29 Jan - 02:48:03 10° W 02:54:08 18° NW 03:00:21 10° N night (unlit)
29 Jan - 11:25:56 10° NNW 11:35:02 40° NE 11:43:49 10° ESE daylight
29 Jan - 13:30:26 10° WNW 13:39:38 45° SW 13:48:32 10° SSE daylight
29 Jan - 22:14:34 10° SSE 22:19:07 14° SE 22:23:41 10° ESE visible
30 Jan - 00:14:34 10° SW 00:23:58 80° SE 00:33:43 10° NE night (unlit)
30 Jan - 02:22:11 10° W 02:28:51 21° NW 02:35:42 10° N night (unlit)
30 Jan - 11:00:58 10° NNW 11:09:49 35° NE 11:18:22 10° ESE daylight
30 Jan - 13:05:01 10° WNW 13:14:27 51° SW 13:23:34 10° SSE daylight
30 Jan - 21:50:35 10° SSE 21:53:50 12° SE 21:57:07 10° ESE visible
30 Jan - 23:49:29 10° SSW 23:58:48 72° SE 00:08:28 10° NE visible
31 Jan - 01:56:27 10° W 02:03:36 24° NW 02:10:58 10° N night (unlit)
31 Jan - 10:36:02 10° N 10:44:34 32° NE 10:52:51 10° ESE daylight
31 Jan - 12:39:38 10° NW 12:49:16 57° SW 12:58:35 10° SSE daylight
31 Jan - 23:24:26 10° SSW 23:33:39 64° SE 23:43:11 10° NE visible
01 Feb - 01:30:47 10° W 01:38:21 27° NW 01:46:09 10° N night (unlit)
01 Feb - 10:11:09 10° N 10:19:20 28° NE 10:27:17 10° ESE daylight
01 Feb - 12:14:17 10° NW 12:24:05 64° SW 12:33:34 10° SSE daylight
01 Feb - 14:28:20 10° SW 14:29:16 10° SW 14:30:13 10° SW daylight
01 Feb - 22:59:24 10° SSW 23:08:29 57° SE 23:17:51 10° NE visible
